This is the latest recevied weather packets stored in our database for station/object KC3UTO. If no packets are shown the sender has not sent any weather packets the latest 10 day(s).
| Time | Temp. | Humidity | Pressure | Rain* | Wind** | Luminosity | Snow |
|---|---|---|---|---|---|---|---|
| 1777409909 | 15.56° C | 51% | 1017.4 hPa | 0 mm | - | 97 W/m² | - |
| 1777409604 | 15.56° C | 49% | 1017.5 hPa | 0 mm | - | 79 W/m² | - |
| 1777409300 | 15.56° C | 52% | 1017.5 hPa | 0 mm | - | 90 W/m² | - |
| 1777408996 | 15.56° C | 51% | 1017.6 hPa | 0 mm | - | 108 W/m² | - |
| 1777408693 | 15.56° C | 50% | 1017.5 hPa | 0 mm | - | 102 W/m² | - |
| 1777408388 | 15.56° C | 50% | 1017.7 hPa | 0 mm | - | 125 W/m² | - |
| 1777408083 | 15.56° C | 50% | 1017.7 hPa | 0 mm | - | 145 W/m² | - |
| 1777407779 | 15.56° C | 49% | 1017.6 hPa | 0 mm | - | 123 W/m² | - |
| 1777407475 | 15.56° C | 49% | 1017.6 hPa | 0 mm | - | 112 W/m² | - |
| 1777407170 | 15.56° C | 50% | 1017.8 hPa | 0 mm | - | 86 W/m² | - |
| 1777406865 | 15.56° C | 49% | 1017.7 hPa | 0 mm | - | 70 W/m² | - |
| 1777406560 | 15.56° C | 48% | 1017.7 hPa | 0 mm | - | 67 W/m² | - |
| 1777406256 | 15.56° C | 49% | 1017.9 hPa | 0 mm | - | 67 W/m² | - |
| 1777405955 | 15.56° C | 47% | 1017.8 hPa | 0 mm | - | 74 W/m² | - |
| 1777405652 | 15.56° C | 47% | 1018.3 hPa | 0 mm | - | 91 W/m² | - |
| 1777405349 | 15.56° C | 47% | 1018.1 hPa | 0 mm | - | 97 W/m² | - |
| 1777405045 | 15.56° C | 46% | 1018.2 hPa | 0 mm | - | 98 W/m² | - |
| 1777404739 | 16.11° C | 47% | 1018.5 hPa | 0 mm | - | 115 W/m² | - |
| 1777404436 | 16.11° C | 47% | 1018.4 hPa | 0 mm | - | 124 W/m² | - |
| 1777404132 | 16.11° C | 45% | 1018.5 hPa | 0 mm | - | 146 W/m² | - |
| 1777403829 | 16.11° C | 46% | 1018.5 hPa | 0 mm | - | 130 W/m² | - |
| 1777403529 | 16.11° C | 45% | 1018.8 hPa | 0 mm | - | 125 W/m² | - |
| 1777403229 | 16.11° C | 44% | 1018.5 hPa | 0 mm | - | 146 W/m² | - |
| 1777402924 | 16.11° C | 46% | 1018.7 hPa | 0 mm | - | 167 W/m² | - |
| 1777402620 | 16.11° C | 48% | 1018.8 hPa | 0 mm | - | 204 W/m² | - |
* Rain latest hour (hover to see other rain measurements)
** Current wind speed in m/s (hover to see current wind gust speed)